Date,TemperatureHighF,TemperatureAvgF,TemperatureLowF,DewpointHighF,DewpointAvgF,DewpointLowF,HumidityHigh,HumidityAvg,HumidityLow,PressureMaxIn,PressureMinIn,WindSpeedMaxMPH,WindSpeedAvgMPH,GustSpeedMaxMPH,PrecipitationSumIn
2013-3-1,36.2,32.6,30.6,30.5,27.0,23.9,90,80,63,29.74,29.57,2,0,14,0.00
2013-3-2,32.7,28.9,23.6,27.4,23.9,19.7,89,82,68,29.75,29.70,1,0,9,0.03
2013-3-3,31.6,26.4,22.9,23.8,20.4,18.3,86,78,67,29.73,29.65,3,0,10,0.06
2013-3-4,29.7,26.0,23.9,21.5,18.7,16.0,83,74,58,29.87,29.68,4,1,13,0.03
2013-3-5,37.2,29.1,24.7,25.5,21.7,19.4,84,74,60,30.08,29.87,3,0,9,0.05
2013-3-6,42.8,33.6,24.2,30.0,24.8,20.3,87,71,51,30.14,30.05,4,0,12,0.01
2013-3-7,37.9,33.3,29.1,25.3,21.8,18.5,80,63,51,30.16,30.11,3,1,11,0.00
2013-3-8,40.5,31.5,26.9,25.9,23.3,21.4,83,72,53,30.30,30.11,2,0,12,0.01
2013-3-9,49.6,21.4,23.3,29.2,-34.1,-99.9,81,28,35,30.33,30.25,3,-464,11,0.00
2013-3-10,56.6,33.1,24.7,28.3,-14.3,-99.9,88,29,23,30.29,30.09,2,-307,11,0.00
2013-3-11,48.9,44.1,39.1,32.3,28.8,24.7,67,55,44,30.15,29.92,2,0,10,0.00
2013-3-12,52.3,46.6,36.5,49.2,41.8,29.0,92,84,55,29.94,29.62,2,0,14,1.05
2013-3-13,43.5,36.0,29.3,36.5,31.7,26.5,94,85,62,29.80,29.71,1,0,4,0.02
2013-3-14,30.6,24.8,18.1,27.7,15.2,3.3,90,67,50,29.90,29.70,3,1,10,0.01
2013-3-15,34.0,24.3,14.0,27.5,13.3,1.9,89,64,41,29.91,29.55,3,1,9,0.00
2013-3-16,31.6,24.2,17.3,21.4,13.2,8.5,81,63,42,29.90,29.71,3,0,6,0.02
2013-3-17,27.0,19.0,11.2,14.2,5.9,-0.5,77,58,37,30.33,29.89,4,1,14,0.00
2013-3-18,36.5,23.2,8.3,21.7,5.6,-2.1,73,49,24,30.43,30.09,5,1,10,0.00
2013-3-19,34.3,30.6,27.6,28.8,25.7,21.1,89,82,68,30.08,29.69,1,0,8,0.08
2013-3-20,34.1,28.8,23.5,26.7,21.9,14.8,89,76,60,29.71,29.62,2,0,4,0.02
2013-3-21,38.2,28.7,20.6,20.6,16.2,11.8,76,61,36,29.71,29.60,2,0,6,0.04
2013-3-22,41.2,28.2,19.2,24.2,18.2,11.6,84,67,40,29.74,29.62,3,0,6,0.00
2013-3-23,38.2,32.1,27.0,22.6,19.9,16.2,82,62,41,29.80,29.66,2,0,11,0.02
2013-3-24,40.5,33.8,26.7,26.6,22.5,20.1,77,63,47,29.84,29.77,2,0,6,0.00
2013-3-25,47.3,33.9,23.2,28.4,23.7,17.7,82,67,43,29.78,29.53,5,1,9,0.00
2013-3-26,47.4,36.5,29.8,27.4,23.8,17.2,80,62,33,29.78,29.57,3,0,10,0.00
2013-3-27,50.1,38.8,28.5,31.2,25.9,21.9,81,62,38,29.91,29.76,4,0,12,0.00
2013-3-28,51.0,40.1,33.8,36.2,32.1,29.7,92,75,48,30.03,29.90,3,0,12,0.01
2013-3-29,49.4,41.1,35.3,36.8,31.5,27.1,88,70,49,30.06,29.99,2,0,7,0.01
2013-3-30,55.9,40.5,27.5,32.3,22.0,11.4,89,53,20,30.09,30.01,6,1,11,0.00
2013-3-31,57.5,42.6,25.4,37.7,23.6,18.0,84,51,24,30.07,29.69,4,1,13,0.03